Emporia, Virginia, United States (23847)
Lat: 36.69N, Lon: 77.54W
Wx Zone: VAZ087
Local Info
Past Weather Observations for Wednesday, October 22, 2014

NOTE: This archive is for the closest National Weather Service station to Emporia. Information may differ from the station used for current weather conditions.

Click here for Long-term Archive

Time Weather Temperature Dewpoint Humidity Pressure Winds Precip Visibility
23:55
Clear
46°F / 8°C 43°F / 6°C 87% 29.98 in
(1015 mb)
SSW 4.6 mph
(SSW 7 kph)
- 10SM
23:35
Clear
46°F / 8°C 43°F / 6°C 87% 30.01 in
(1016 mb)
W 4.6 mph
(W 7 kph)
- 10SM
23:15
Clear
46°F / 8°C 45°F / 7°C 93% 30.01 in
(1016 mb)
W 3.5 mph
(W 6 kph)
- 10SM
22:55
Clear
46°F / 8°C 45°F / 7°C 93% 30.01 in
(1016 mb)
W 4.6 mph
(W 7 kph)
- 10SM
22:35
Clear
48°F / 9°C 45°F / 7°C 87% 30.01 in
(1016 mb)
W 3.5 mph
(W 6 kph)
- 10SM
22:15
Clear
50°F / 10°C 45°F / 7°C 82% 30.01 in
(1016 mb)
W 4.6 mph
(W 7 kph)
- 10SM
21:55
Partly Cloudy
50°F / 10°C 45°F / 7°C 82% 30.01 in
(1016 mb)
W 5.8 mph
(W 9 kph)
- 10SM
21:35
Overcast
52°F / 11°C 45°F / 7°C 77% 30.01 in
(1016 mb)
W 4.6 mph
(W 7 kph)
- 10SM
21:15
Overcast
52°F / 11°C 45°F / 7°C 77% 30.01 in
(1016 mb)
W 6.9 mph
(W 11 kph)
- 10SM
20:55
Overcast
52°F / 11°C 45°F / 7°C 77% 30.01 in
(1016 mb)
WNW 6.9 mph
(WNW 11 kph)
- 10SM
20:35
Mostly Cloudy
52°F / 11°C 45°F / 7°C 77% 30.01 in
(1016 mb)
WNW 5.8 mph
(WNW 9 kph)
- 10SM
20:15
Partly Cloudy
52°F / 11°C 45°F / 7°C 77% 30.01 in
(1016 mb)
W 5.8 mph
(W 9 kph)
- 10SM
19:55
Overcast
54°F / 12°C 46°F / 8°C 77% 29.98 in
(1015 mb)
W 5.8 mph
(W 9 kph)
- 10SM
19:35
Overcast
54°F / 12°C 46°F / 8°C 77% 29.98 in
(1015 mb)
W 6.9 mph
(W 11 kph)
- 10SM
19:15
Overcast
54°F / 12°C 46°F / 8°C 77% 29.98 in
(1015 mb)
WNW 5.8 mph
(WNW 9 kph)
- 10SM
18:55
Overcast
54°F / 12°C 46°F / 8°C 77% 29.98 in
(1015 mb)
WNW 6.9 mph
(WNW 11 kph)
- 10SM
18:35
Overcast
54°F / 12°C 46°F / 8°C 77% 29.98 in
(1015 mb)
WNW 5.8 mph
(WNW 9 kph)
- 10SM
18:15
Overcast
55°F / 13°C 46°F / 8°C 72% 29.98 in
(1015 mb)
WNW 8.1 mph
(WNW 13 kph)
- 10SM
17:55
Overcast
55°F / 13°C 46°F / 8°C 72% 29.98 in
(1015 mb)
NW 10.4 mph
(NW 17 kph)
- 10SM
17:35
Overcast
55°F / 13°C 46°F / 8°C 72% 29.98 in
(1015 mb)
WNW 8.1 mph
(WNW 13 kph)
- 10SM
17:15
Overcast
55°F / 13°C 46°F / 8°C 72% 29.95 in
(1014 mb)
WNW 9.2 mph
(WNW 15 kph)
- 10SM
16:55
Overcast
55°F / 13°C 46°F / 8°C 72% 29.95 in
(1014 mb)
NW 13.8 mph
(NW 22 kph)
- 10SM
16:35
Overcast
55°F / 13°C 46°F / 8°C 72% 29.95 in
(1014 mb)
WNW 9.2 mph
(WNW 15 kph)
- 10SM
16:15
Overcast
55°F / 13°C 46°F / 8°C 72% 29.95 in
(1014 mb)
WNW 11.5 mph
(WNW 19 kph)
- 10SM
15:55
Overcast
57°F / 14°C 46°F / 8°C 67% 29.95 in
(1014 mb)
WNW 12.7 mph
(WNW 20 kph)
- 10SM
15:35
Overcast
57°F / 14°C 46°F / 8°C 67% 29.95 in
(1014 mb)
NW 12.7 mph
(NW 20 kph)
- 10SM
15:15
Overcast
59°F / 15°C 48°F / 9°C 68% 29.95 in
(1014 mb)
WNW 11.5 mph
(WNW 19 kph)
- 10SM
14:55
Mostly Cloudy
59°F / 15°C 50°F / 10°C 72% 29.95 in
(1014 mb)
W 10.4 mph
(W 17 kph)
- 10SM
14:35
Mostly Cloudy
57°F / 14°C 50°F / 10°C 77% 29.95 in
(1014 mb)
WNW 9.2 mph
(WNW 15 kph)
- 10SM
14:15
Overcast
55°F / 13°C 50°F / 10°C 82% 29.95 in
(1014 mb)
WNW 10.4 mph
(WNW 17 kph)
- 10SM
13:55
Overcast
55°F / 13°C 50°F / 10°C 82% 29.95 in
(1014 mb)
WNW 11.5 mph
(WNW 19 kph)
- 10SM
13:35
Overcast
Drizzle
55°F / 13°C 50°F / 10°C 82% 29.95 in
(1014 mb)
NW 11.5 mph
(NW 19 kph)
0.01 in
(0.25 mm)
10SM
13:15
Overcast
Light Rain
54°F / 12°C 50°F / 10°C 88% 29.95 in
(1014 mb)
WNW 8.1 mph
(WNW 13 kph)
0.01 in
(0.25 mm)
10SM
12:55
Overcast
Light Rain
54°F / 12°C 50°F / 10°C 88% 29.95 in
(1014 mb)
W 10.4 mph
(W 17 kph)
0.01 in
(0.25 mm)
10SM
12:35
Overcast
Light Rain
54°F / 12°C 50°F / 10°C 88% 29.95 in
(1014 mb)
WNW 9.2 mph
(WNW 15 kph)
0.01 in
(0.25 mm)
10SM
12:15
Overcast
Light Snow
54°F / 12°C 50°F / 10°C 88% 29.95 in
(1014 mb)
WNW 10.4 mph
(WNW 17 kph)
- 7SM
11:55
Overcast
54°F / 12°C 48°F / 9°C 82% 29.95 in
(1014 mb)
NW 18.4 mph
(NW 30 kph)
- 10SM
11:35
Overcast
55°F / 13°C 48°F / 9°C 77% 29.95 in
(1014 mb)
NW 16.1 mph
(NW 26 kph)
- 10SM
11:15
Overcast
Light Rain
54°F / 12°C 50°F / 10°C 88% 29.95 in
(1014 mb)
NW 16.1 mph
(NW 26 kph)
- 10SM
10:55
Overcast
54°F / 12°C 48°F / 9°C 82% 29.95 in
(1014 mb)
NW 12.7 mph
(NW 20 kph)
- 10SM
10:35
Overcast
Light Rain
55°F / 13°C 50°F / 10°C 82% 29.95 in
(1014 mb)
WNW 11.5 mph
(WNW 19 kph)
- 10SM
10:15
Overcast
54°F / 12°C 48°F / 9°C 82% 29.95 in
(1014 mb)
WNW 12.7 mph
(WNW 20 kph)
- 10SM
09:55
Overcast
54°F / 12°C 48°F / 9°C 82% 29.95 in
(1014 mb)
W 12.7 mph
(W 20 kph)
- 10SM
09:35
Overcast
52°F / 11°C 48°F / 9°C 88% 29.95 in
(1014 mb)
W 8.1 mph
(W 13 kph)
- 10SM
09:15
Overcast
Light Rain
52°F / 11°C 48°F / 9°C 88% 29.95 in
(1014 mb)
WNW 11.5 mph
(WNW 19 kph)
- 10SM
08:55
Overcast
52°F / 11°C 46°F / 8°C 82% 29.95 in
(1014 mb)
W 10.4 mph
(W 17 kph)
- 10SM
08:35
Overcast
52°F / 11°C 48°F / 9°C 88% 29.95 in
(1014 mb)
W 9.2 mph
(W 15 kph)
- 10SM
08:15
Overcast
52°F / 11°C 46°F / 8°C 82% 29.95 in
(1014 mb)
W 11.5 mph
(W 19 kph)
- 10SM
07:55
Overcast
50°F / 10°C 46°F / 8°C 88% 29.95 in
(1014 mb)
W 9.2 mph
(W 15 kph)
- 10SM
07:35
Overcast
50°F / 10°C 46°F / 8°C 88% 29.95 in
(1014 mb)
W 6.9 mph
(W 11 kph)
- 10SM
07:15
Overcast
52°F / 11°C 46°F / 8°C 82% 29.95 in
(1014 mb)
W 6.9 mph
(W 11 kph)
- 10SM
06:55
Overcast
50°F / 10°C 46°F / 8°C 88% 29.92 in
(1013 mb)
W 6.9 mph
(W 11 kph)
- 10SM
06:35
Overcast
50°F / 10°C 46°F / 8°C 88% 29.92 in
(1013 mb)
W 5.8 mph
(W 9 kph)
- 10SM
06:15
Overcast
50°F / 10°C 46°F / 8°C 88% 29.92 in
(1013 mb)
W 8.1 mph
(W 13 kph)
- 10SM
05:55
Overcast
50°F / 10°C 46°F / 8°C 88% 29.92 in
(1013 mb)
W 6.9 mph
(W 11 kph)
- 10SM
05:35
Overcast
50°F / 10°C 46°F / 8°C 88% 29.92 in
(1013 mb)
W 11.5 mph
(W 19 kph)
- 10SM
05:15
Mostly Cloudy
50°F / 10°C 46°F / 8°C 88% 29.92 in
(1013 mb)
WNW 9.2 mph
(WNW 15 kph)
- 10SM
04:55
Mostly Cloudy
52°F / 11°C 46°F / 8°C 82% 29.89 in
(1012 mb)
W 5.8 mph
(W 9 kph)
- 10SM
04:35
Overcast
52°F / 11°C 46°F / 8°C 82% 29.92 in
(1013 mb)
W 8.1 mph
(W 13 kph)
- 10SM
04:15
Overcast
52°F / 11°C 48°F / 9°C 88% 29.92 in
(1013 mb)
W 5.8 mph
(W 9 kph)
- 10SM
03:55
Overcast
52°F / 11°C 48°F / 9°C 88% 29.89 in
(1012 mb)
Calm - 10SM
03:35
Overcast
52°F / 11°C 48°F / 9°C 88% 29.89 in
(1012 mb)
SSW 4.6 mph
(SSW 7 kph)
- 10SM
03:15
Overcast
52°F / 11°C 48°F / 9°C 88% 29.89 in
(1012 mb)
W 3.5 mph
(W 6 kph)
- 10SM
02:55
Mostly Cloudy
50°F / 10°C 48°F / 9°C 94% 29.89 in
(1012 mb)
W 3.5 mph
(W 6 kph)
- 10SM
02:35
Partly Cloudy
50°F / 10°C 46°F / 8°C 88% 29.89 in
(1012 mb)
W 3.5 mph
(W 6 kph)
- 10SM
02:15
Clear
50°F / 10°C 48°F / 9°C 94% 29.89 in
(1012 mb)
W 3.5 mph
(W 6 kph)
- 10SM
01:55
Partly Cloudy
50°F / 10°C 48°F / 9°C 94% 29.89 in
(1012 mb)
W 3.5 mph
(W 6 kph)
- 10SM
01:35
Mostly Cloudy
52°F / 11°C 48°F / 9°C 88% 29.89 in
(1012 mb)
WNW 4.6 mph
(WNW 7 kph)
- 10SM
01:15
Mostly Cloudy
52°F / 11°C 50°F / 10°C 94% 29.92 in
(1013 mb)
SW 3.5 mph
(SW 6 kph)
- 10SM
00:55
Overcast
Light Rain
52°F / 11°C 48°F / 9°C 88% 29.89 in
(1012 mb)
NW 5.8 mph
(NW 9 kph)
- 10SM
00:35
Mostly Cloudy
54°F / 12°C 48°F / 9°C 82% 29.89 in
(1012 mb)
W 4.6 mph
(W 7 kph)
- 10SM
00:15
Mostly Cloudy
54°F / 12°C 48°F / 9°C 82% 29.89 in
(1012 mb)
W 5.8 mph
(W 9 kph)
- 10SM
Time Weather Temperature Dewpoint Humidity Pressure Winds Precip Visibility


Weather for websites

WeatherForYou.com, LLC is not responsible for any damages or problems caused by this service. Current weather conditions are obtained from the closest station including government and personal stations which may have varying degrees of accuracy. Weather forecasts are derived from the NOAA NDFD. Like all things, this site belongs to Jesus Christ... He just trusts me to maintain it. If you have any questions or comments email webmaster@weatherforyou.com

Copyright © 2014, WeatherForYou.com LLC. All rights reserved.